{"data":{"norad_id":69656,"intl_designator":"2026-143H","name":"STARLINK-37876","alt_names":[],"object_type":"PAYLOAD","status":"ACTIVE","operator":null,"country":"US","launch_date":"2026-06-21","launch_site_code":"AFWTR","launch_vehicle":null,"mission":null,"orbit_class":"UNKNOWN","rcs_meters":null,"size_class":null,"mass_kg":null,"dimensions":null,"purposes":["comms"],"wikipedia_slug":null,"has_3d_model":false,"image_url":null,"decayed_at":null,"tle_current":{"epoch":"2026-09-20T02:42:34.066656Z","epoch_age_seconds":54966,"freshness":"FRESH","line1":"1 69656U 26143H   26263.11289429  .00015263  00000+0  47408-3 0  9995","line2":"2 69656  97.2839 306.3140 0000398 254.0640 106.0559 15.33449693 15087","mean_motion":15.33449693,"eccentricity":3.98e-5,"inclination_deg":97.2839,"raan_deg":306.314,"arg_perigee_deg":254.064,"mean_anomaly_deg":106.0559,"bstar":0.00047408,"rev_number":1508,"period_min":93.905917264415,"perigee_km":465.25683353233,"apogee_km":465.80158936276,"semimajor_km":6843.6662114475,"source":"CELESTRAK","updated_at":"2026-09-20T09:00:44.248119Z"}}}